GFSNE_925_spd_000.txt.gz
Wind_Speed
10 10 12 12 11 11 12 12 15 9 9 11 12 8 11 12 13 15 15 15 20 20 16 15 15 17 19 18 19 21 24 28 31 35 35 35 35 36
10 10 11 13 13 12 11 13 13 15 11 17 15 15 13 16 16 17 17 20 21 19 22 21 21 21 22 22 23 24 25 27 31 34 38 37 38 39
12 12 12 12 13 11 10 12 14 14 16 21 19 18 15 16 18 18 19 20 21 21 20 23 27 27 25 26 27 29 29 29 31 33 36 40 39 41
13 13 12 12 10 12 13 12 14 15 18 19 22 22 19 18 17 19 21 22 22 22 24 28 26 27 29 29 32 30 31 32 33 34 36 39 42 42
14 13 13 12 14 14 14 15 16 15 16 19 19 19 21 20 21 20 21 23 22 22 23 22 26 28 30 31 32 31 36 34 36 37 38 40 41 44
15 15 15 15 15 14 15 15 15 15 18 19 19 20 17 22 22 22 21 24 24 25 26 29 30 29 30 28 31 34 34 36 37 38 39 40 43 44
16 17 17 16 16 16 17 16 16 18 18 20 21 22 21 19 22 24 25 25 25 27 28 29 32 31 30 33 34 35 37 40 41 41 39 39 42 46
16 15 15 17 20 20 20 20 19 15 17 20 23 24 23 23 24 22 24 25 22 26 27 31 31 34 34 36 38 42 46 46 42 44 43 43 40 43
14 12 15 21 20 16 16 17 17 15 18 18 20 21 21 22 22 22 24 26 28 31 31 34 30 35 36 39 42 44 43 44 47 45 46 46 46 43
10 7 11 20 23 23 17 16 16 15 16 17 17 18 19 20 20 22 25 27 27 29 29 29 31 34 39 41 46 47 48 50 48 47 46 46 45 45
17 19 24 21 22 20 12 13 15 16 16 15 16 19 21 23 19 17 21 21 21 26 28 31 32 36 40 44 40 42 45 47 48 47 46 46 45 42
21 17 17 17 16 15 11 12 13 15 12 15 17 17 18 19 19 17 18 19 24 25 28 27 33 29 18 36 35 37 39 37 33 37 42 44 43 38
13 9 7 11 12 12 11 10 12 11 13 15 17 19 19 18 18 17 19 22 26 28 31 29 28 32 26 30 34 34 34 35 31 31 35 42 42 39
10 8 8 12 9 10 9 13 14 12 13 15 17 19 18 19 19 20 23 23 26 29 32 32 28 33 33 32 26 35 28 27 32 34 29 33 41 39
7 8 9 7 9 12 14 13 10 11 13 14 17 17 17 20 22 24 23 24 25 24 23 26 30 37 38 34 29 27 23 29 35 24 22 26 28 37
8 4 5 7 10 8 6 7 8 10 12 15 16 16 18 19 21 22 23 24 23 24 24 24 31 34 37 32 23 21 19 11 25 15 20 18 18 26
7 6 8 9 9 7 7 8 9 10 11 12 15 17 17 18 19 20 21 21 21 23 27 29 32 33 33 23 9 17 20 20 20 13 18 18 22 24
5 8 9 7 8 8 8 9 9 8 10 12 15 15 16 17 18 20 19 19 20 22 23 29 28 30 32 21 14 20 21 20 22 11 14 14 15 24
7 5 6 6 7 7 8 8 9 8 9 12 13 14 14 15 17 18 19 20 19 23 22 27 26 24 11 13 14 17 28 28 25 21 14 14 10 17
5 5 6 7 7 7 7 8 9 9 10 11 12 11 12 13 15 17 18 19 21 23 21 23 24 24 16 11 10 25 25 26 22 17 12 15 12 10
5 5 5 6 6 6 7 7 8 9 8 10 10 10 11 13 14 16 18 18 19 17 20 25 25 25 23 21 17 19 28 24 19 22 13 8 7 8
5 5 5 6 6 6 6 7 8 7 7 8 8 9 11 12 14 16 17 18 17 18 19 26 18 23 19 17 17 24 24 31 29 23 29 22 4 3
6 6 6 7 6 5 6 7 6 6 5 6 8 9 11 12 13 14 16 17 16 16 21 17 20 23 18 17 18 22 29 27 27 28 32 35 37 29

GFSNE_925_spd_003.txt.gz
Wind_Speed
10 11 11 10 8 7 6 7 12 6 5 12 10 7 7 11 9 11 15 16 17 16 21 21 19 20 19 21 20 20 21 22 23 25 28 31 35 35
11 10 11 10 9 11 9 12 8 11 8 13 14 12 11 13 16 13 15 17 20 20 21 22 20 20 23 25 25 25 26 26 26 27 29 30 33 37
12 12 12 11 10 11 9 9 10 12 13 15 17 16 13 16 19 18 18 18 21 23 20 18 21 25 26 25 27 28 28 28 28 30 31 32 33 36
14 15 14 15 15 14 9 13 13 12 14 15 17 16 17 17 16 17 20 20 22 21 22 26 30 29 25 26 29 31 32 30 29 31 30 31 33 35
13 14 14 14 12 14 14 13 13 14 13 17 15 17 18 22 23 18 19 24 24 26 27 30 29 27 26 30 35 35 33 33 32 31 32 32 32 35
14 15 14 13 14 15 16 17 18 17 18 16 15 18 20 22 25 18 18 21 25 23 22 25 31 33 31 33 36 36 33 34 34 34 32 34 36 38
15 14 15 16 19 15 15 18 22 19 20 20 19 18 20 17 19 22 23 24 23 21 23 25 26 27 29 32 34 34 30 30 32 36 38 42 45 44
16 14 17 15 12 14 17 17 19 25 24 22 19 19 20 19 18 19 21 23 19 22 25 27 26 29 32 34 35 33 35 34 39 48 47 45 48 46
16 16 15 16 15 12 15 15 21 23 27 23 18 19 18 17 20 21 21 22 25 26 26 28 28 29 32 34 33 32 41 44 47 52 54 51 51 50
18 17 16 16 16 16 20 21 24 20 21 20 19 20 18 17 17 20 22 25 26 26 20 24 28 31 32 30 33 35 46 50 46 49 49 49 48 48
20 18 17 20 21 26 24 21 17 18 18 21 20 19 19 21 20 17 19 21 21 21 24 27 25 29 32 35 37 38 40 48 49 49 46 46 46 45
18 17 21 22 24 20 16 12 15 17 18 17 14 16 20 22 21 23 21 20 21 22 23 25 27 30 26 33 32 40 39 42 43 46 45 42 39 38
16 17 17 20 17 15 13 10 13 16 14 15 18 20 20 19 19 16 15 19 23 26 27 28 28 29 24 28 31 38 41 43 39 39 35 33 33 36
17 17 16 20 12 11 12 14 17 17 15 18 20 19 19 20 19 17 21 25 24 25 33 31 27 26 27 29 30 39 46 42 37 38 36 39 37 37
17 19 11 10 10 13 16 16 16 13 15 17 17 17 19 19 19 21 20 21 23 24 20 17 23 30 25 28 29 36 29 33 29 28 33 37 26 33
13 9 7 7 9 10 5 9 9 10 12 13 17 17 18 19 19 19 21 22 22 21 20 22 27 28 29 27 32 33 26 16 36 35 35 25 23 18
12 10 9 11 13 13 11 9 12 13 12 13 15 16 17 17 18 18 19 21 21 20 20 24 28 24 25 25 28 27 28 29 34 33 33 15 13 19
7 12 13 12 12 12 10 10 10 11 12 12 14 15 15 16 17 18 18 19 20 21 21 17 23 26 25 21 17 24 26 28 34 32 28 18 14 21
9 12 10 10 10 9 9 11 11 11 8 12 13 14 14 14 15 16 17 19 19 20 18 19 21 18 9 11 20 23 29 30 31 28 26 23 16 17
9 10 8 8 9 9 10 10 10 11 11 11 12 12 12 13 14 15 17 18 19 21 14 18 21 19 14 8 13 27 33 30 28 27 29 26 19 19
8 7 7 7 8 8 9 9 9 11 10 11 11 11 11 12 14 15 17 17 20 18 15 18 14 20 17 17 13 22 31 35 31 28 30 23 13 7
8 7 7 7 7 7 8 8 10 10 9 9 9 9 11 12 14 15 16 18 19 18 17 17 14 21 15 14 15 21 27 34 35 32 32 28 12 6
9 8 8 7 7 7 8 9 10 9 8 7 8 9 10 12 13 14 16 17 17 18 14 16 14 15 15 14 17 19 23 28 31 28 32 30 29 29

GFSNE_925_spd_006.txt.gz
Wind_Speed
10 11 9 11 11 9 6 6 7 2 3 9 6 8 7 8 11 9 13 14 16 16 20 21 19 19 19 19 20 21 22 23 24 24 23 24 24 26
13 14 16 13 10 7 9 12 14 14 2 9 7 8 9 10 13 12 14 16 19 22 23 23 22 21 22 23 23 23 23 24 27 27 26 25 26 27
15 15 9 10 10 9 11 5 3 6 6 8 12 12 15 18 17 17 20 20 22 24 25 26 25 26 27 25 25 24 24 25 26 27 28 28 29 28
19 15 13 12 14 15 14 11 12 13 12 13 15 16 14 13 16 13 19 22 21 22 22 25 25 28 31 30 28 27 27 29 30 29 28 29 29 29
19 18 17 16 14 13 11 14 13 12 11 17 19 16 18 21 21 22 23 26 20 24 26 25 31 27 29 33 35 33 32 32 34 33 33 31 30 30
17 15 14 15 15 15 16 16 16 15 13 13 25 23 18 19 19 18 19 18 21 22 23 25 29 27 26 30 29 34 33 31 33 35 36 36 35 34
17 16 17 16 16 18 16 14 17 15 13 14 16 21 20 19 16 18 18 21 22 23 24 22 25 24 25 26 26 28 31 35 35 33 30 31 31 36
20 16 17 12 15 17 14 15 18 19 20 19 19 17 21 20 19 21 16 17 15 19 20 25 28 27 30 35 33 31 34 38 35 26 34 39 43 46
19 17 19 19 16 19 16 15 16 19 24 21 23 21 21 24 20 18 16 16 19 24 26 28 25 25 26 28 32 33 33 29 32 38 44 50 53 50
16 17 19 20 18 16 18 19 22 23 23 22 23 24 24 22 18 18 21 22 24 24 23 18 23 27 30 28 26 36 40 40 45 46 48 50 53 57
21 19 19 20 22 21 19 23 25 19 18 18 22 25 24 21 20 19 22 16 17 18 21 26 23 23 28 32 35 34 36 34 43 45 49 51 50 49
20 21 22 23 24 22 20 16 13 14 12 15 13 12 15 22 22 23 29 19 19 16 16 20 24 27 20 31 24 32 28 38 41 44 45 46 47 47
23 23 20 20 18 18 16 12 12 14 16 15 15 17 20 22 22 16 11 13 15 18 23 25 25 27 23 26 28 32 34 37 41 44 35 38 41 41
16 10 9 12 14 12 9 11 13 14 14 13 15 16 18 13 13 15 21 23 21 24 26 28 27 24 22 24 28 31 35 35 35 33 33 43 38 35
16 12 10 8 8 7 9 10 12 13 11 14 15 14 15 17 18 19 16 18 20 22 24 24 20 24 20 22 29 32 34 35 31 30 40 39 39 38
14 12 9 6 7 7 11 11 9 7 8 12 15 15 13 14 16 16 17 18 21 25 21 19 22 20 22 25 29 30 30 23 35 31 37 43 40 40
9 10 10 9 12 14 13 13 13 13 14 13 9 12 13 16 14 15 16 22 21 21 20 17 19 22 21 23 26 27 29 32 33 33 34 34 38 39
14 11 11 14 15 8 18 18 18 18 11 3 7 12 14 13 15 15 18 17 19 19 20 15 16 21 22 16 16 22 26 28 32 31 30 27 32 33
7 8 14 12 4 5 6 8 9 7 6 8 9 10 11 14 14 14 17 17 18 21 22 13 14 11 7 10 18 19 28 31 32 27 26 27 31 37
10 11 11 2 2 3 4 6 7 7 9 9 9 11 14 12 12 14 16 17 19 23 23 8 12 12 11 6 12 30 27 30 30 30 28 32 28 29
14 14 6 3 3 4 4 4 4 6 7 10 11 11 9 11 13 15 16 19 22 22 11 10 14 16 16 16 13 18 25 30 29 31 29 24 25 19
7 6 1 0 2 4 6 5 6 7 9 9 7 8 10 10 13 16 16 20 20 18 14 10 13 12 9 11 15 20 22 33 31 32 31 25 17 7
8 5 2 2 2 6 8 6 6 8 9 6 5 8 9 11 15 13 18 18 18 20 17 24 6 6 9 11 16 18 22 29 32 33 32 28 23 29

GFSNE_925_spd_009.txt.gz
Wind_Speed
14 12 11 10 8 7 12 10 7 2 2 3 2 3 9 13 13 13 13 14 14 15 15 15 16 16 17 18 17 17 17 20 21 21 21 21 21 20
17 15 13 11 10 6 4 14 11 11 3 6 2 3 6 8 11 11 14 14 17 22 24 23 23 22 23 23 23 22 22 21 20 22 22 22 22 22
21 18 16 15 14 14 8 2 5 10 9 6 4 11 15 16 16 13 15 19 22 24 24 24 23 24 26 28 26 24 24 25 24 23 24 24 24 24
24 21 20 17 14 14 14 8 5 5 5 3 9 13 15 17 17 17 21 18 21 24 26 24 25 29 30 30 29 30 29 29 29 27 27 29 29 28
27 23 21 17 18 15 13 11 10 10 10 9 14 18 21 19 19 25 22 19 17 15 18 21 24 25 26 27 27 27 27 31 34 34 33 33 31 32
26 25 24 21 19 17 15 15 14 14 15 18 17 20 21 21 20 16 12 16 22 25 22 22 24 23 19 19 17 18 20 23 24 26 31 33 33 31
24 23 23 22 20 18 18 18 17 18 21 21 16 20 24 20 16 17 16 21 22 22 23 21 24 24 25 25 26 28 29 26 28 30 34 35 35 30
26 24 24 23 23 21 20 19 22 22 22 19 22 21 26 24 19 17 17 17 6 18 12 27 31 28 21 21 23 24 27 29 32 30 28 22 31 35
30 27 24 24 19 17 19 19 17 18 19 22 24 26 25 25 20 19 19 17 19 29 25 25 26 25 19 23 25 22 21 27 35 36 34 37 40 42
31 30 27 26 22 19 16 16 18 18 19 22 24 23 23 22 21 20 18 20 24 24 22 14 21 21 17 19 28 34 35 32 29 32 35 36 41 44
28 21 21 22 19 16 17 21 23 22 21 15 15 16 16 18 21 19 21 22 15 23 22 23 19 21 23 28 24 24 23 31 35 36 38 42 44 45
25 24 22 24 22 21 20 20 18 17 11 11 11 12 13 15 18 23 26 20 16 11 10 16 25 25 13 21 22 31 30 35 35 35 40 42 45 43
22 20 23 25 23 20 17 16 14 11 11 13 15 14 14 14 18 9 5 7 11 18 19 19 21 24 20 17 23 31 27 31 34 35 39 38 39 40
15 13 14 14 17 14 11 11 7 8 12 13 12 12 13 5 9 10 10 10 12 16 18 21 23 26 28 18 21 25 30 31 29 35 37 39 41 40
17 14 11 10 10 9 7 6 7 7 8 8 9 10 10 9 9 14 14 14 16 19 21 20 24 26 25 23 19 26 26 23 25 29 39 39 41 42
19 17 13 6 6 6 8 9 9 9 8 7 9 12 7 10 13 12 14 16 20 22 19 21 18 10 17 24 24 27 30 17 31 32 36 41 39 38
14 11 11 11 10 10 12 13 13 10 10 11 12 5 6 11 10 14 15 19 20 21 24 21 24 19 21 22 23 27 29 32 33 34 37 40 39 34
15 15 13 11 12 15 17 16 15 14 12 9 3 6 7 7 12 15 15 18 19 22 25 28 25 19 22 25 17 22 27 28 33 32 36 32 39 34
17 14 12 11 7 9 9 6 3 3 5 2 1 3 5 9 14 12 15 18 20 25 28 29 18 13 3 6 22 22 22 31 33 35 32 31 33 41
13 13 12 4 8 6 4 4 5 4 1 4 8 11 9 10 9 13 16 20 22 26 30 26 11 14 7 5 11 30 24 26 30 32 33 33 32 30
12 13 10 11 11 10 7 4 1 1 4 7 6 6 8 7 9 13 18 20 23 28 26 15 19 17 13 15 13 17 25 23 28 32 32 29 24 20
1 3 10 12 8 5 2 2 2 3 5 8 9 6 5 6 10 15 17 18 25 27 22 23 28 12 6 10 14 18 22 31 29 32 25 28 23 7
5 8 11 9 4 3 4 6 4 5 7 10 4 1 4 9 13 12 16 20 25 20 25 24 29 6 7 11 15 16 20 27 29 32 28 30 28 24

GFSNE_925_spd_015.txt.gz
Wind_Speed
18 15 14 11 10 8 7 8 6 2 2 4 4 2 5 10 11 14 16 16 16 18 17 17 18 18 16 15 16 17 19 19 17 16 16 15 13 14
18 17 15 14 12 10 8 10 13 8 2 6 7 5 4 4 6 9 11 13 13 15 17 19 20 21 20 19 18 20 21 22 23 22 19 18 17 16
21 18 16 14 13 12 11 8 10 11 7 8 10 9 11 10 10 12 14 16 16 16 16 17 17 19 21 20 19 19 22 23 23 23 24 24 23 22
25 22 21 17 15 14 13 13 11 9 10 11 11 12 14 14 13 13 16 16 18 17 18 15 14 16 17 16 17 19 18 19 21 21 21 21 21 22
27 26 23 20 20 17 13 16 17 14 12 13 15 12 14 14 13 16 19 22 20 12 9 14 18 17 17 17 15 14 14 14 13 12 13 14 16 18
30 28 26 24 23 20 20 20 19 17 18 18 18 15 14 12 11 15 21 20 16 16 16 18 16 12 16 18 21 22 20 15 14 14 15 17 18 19
32 31 27 26 25 24 21 20 18 19 19 17 19 14 15 15 12 13 17 19 21 18 18 15 11 19 15 14 13 11 12 13 15 15 15 17 19 19
35 30 29 28 25 23 23 22 19 21 22 19 17 15 20 15 15 16 14 14 6 13 11 14 18 18 16 18 17 17 17 17 18 23 27 28 25 23
35 33 33 29 24 21 19 20 19 19 18 19 20 16 15 16 18 17 16 14 17 21 18 17 21 20 18 18 19 20 20 24 26 19 18 19 20 21
35 31 34 29 26 22 19 20 17 18 16 14 13 16 16 17 16 15 15 16 18 19 17 8 18 22 16 16 19 23 26 21 21 21 22 21 22 23
30 29 27 27 23 19 18 16 17 16 14 15 15 15 15 14 12 13 15 13 9 16 19 10 8 15 20 21 17 17 15 20 22 24 25 25 23 22
25 22 23 21 18 17 17 19 17 15 13 13 12 9 10 12 13 14 14 14 12 5 2 5 11 11 7 15 9 20 18 21 21 24 27 26 23 24
23 20 20 18 15 13 15 16 17 14 13 8 6 6 9 9 5 0 3 5 8 10 13 11 8 16 11 13 15 20 21 24 27 29 29 26 23 22
20 19 17 15 14 12 15 16 14 11 8 7 4 4 3 1 5 4 6 9 10 13 12 16 14 17 15 7 11 22 27 28 30 29 25 25 29 31
17 14 13 13 11 12 8 10 11 12 11 8 6 6 5 5 6 8 10 10 13 13 13 13 14 15 18 17 18 25 21 22 20 26 31 30 32 33
17 15 14 12 11 10 11 12 13 12 11 9 9 8 8 9 9 9 10 12 12 12 12 14 16 18 21 22 21 23 28 15 29 32 30 31 29 31
20 18 17 14 11 12 12 13 13 13 13 12 9 9 10 11 9 8 9 10 10 13 17 18 20 22 19 15 17 25 24 22 27 29 32 29 32 32
23 21 18 16 15 16 15 13 13 13 13 12 11 11 11 10 10 8 9 8 10 14 17 20 22 19 16 22 19 19 20 20 27 30 29 24 32 33
22 21 20 19 19 18 14 14 15 13 12 12 12 10 10 9 9 8 6 9 12 15 17 20 20 15 3 5 18 10 14 20 24 29 24 26 32 37
20 22 20 20 19 16 13 15 14 12 12 12 11 9 8 6 5 5 7 10 13 14 16 19 19 21 9 5 7 19 17 20 23 25 28 31 35 36
21 19 17 18 17 14 16 17 16 14 13 12 9 9 8 6 6 6 8 10 11 12 17 19 21 17 15 9 8 14 21 22 22 22 29 27 29 34
20 18 17 16 15 17 18 17 16 15 15 13 11 11 11 10 8 7 7 9 12 14 16 19 17 14 11 7 11 17 23 27 29 26 22 23 30 13
19 18 17 17 16 18 20 20 18 17 15 14 12 11 11 12 9 7 6 8 11 13 15 18 16 12 11 10 12 18 24 27 27 31 31 27 34 33

GFSNE_925_spd_021.txt.gz
Wind_Speed
13 13 12 10 9 8 7 6 6 3 4 4 4 5 4 3 5 7 9 10 10 11 11 11 13 13 13 14 15 16 16 16 16 16 16 16 16 15
15 15 16 13 11 10 9 8 8 8 5 5 5 5 4 4 6 6 7 8 10 11 13 13 14 15 15 16 15 17 19 20 21 20 19 18 18 19
20 19 18 17 14 12 12 11 10 9 9 6 6 7 10 10 9 8 8 8 8 9 10 13 15 15 14 12 12 13 15 17 19 20 20 21 22 22
24 20 20 18 19 17 15 14 12 11 10 10 7 8 9 8 9 10 8 8 8 12 14 14 12 10 10 12 14 14 15 16 17 18 17 17 17 19
26 26 30 23 19 16 17 14 14 12 12 12 11 6 6 7 8 8 9 9 10 10 7 8 10 12 13 11 11 14 15 17 19 20 21 21 20 17
31 28 21 22 23 23 18 16 15 14 12 13 14 12 9 8 8 11 11 10 9 7 10 11 12 13 12 11 15 15 14 13 14 13 12 13 15 14
30 26 27 28 28 27 20 18 17 16 14 13 14 12 11 10 11 12 12 10 9 8 8 7 7 8 11 13 13 13 14 14 15 16 16 15 16 19
28 28 28 32 30 27 26 26 23 19 17 15 14 15 14 12 10 11 10 11 11 5 7 10 9 13 14 15 15 15 16 15 15 16 16 18 19 16
30 27 25 25 32 28 26 26 28 25 22 17 17 16 12 11 9 8 10 11 13 12 9 13 12 16 15 14 15 12 16 18 18 16 20 17 16 18
30 29 27 25 27 30 22 22 23 24 25 23 21 16 11 8 9 7 7 9 10 12 10 10 12 13 11 12 16 16 13 12 15 15 15 17 18 19
28 27 26 24 27 30 28 20 21 19 19 21 19 15 14 12 10 7 6 7 11 11 8 9 8 11 13 16 12 11 14 12 13 16 15 16 19 22
26 25 30 27 25 23 25 24 22 19 16 19 18 15 12 10 10 9 8 10 10 8 5 7 10 11 9 11 8 15 14 15 15 13 14 15 14 16
26 27 27 28 28 23 24 23 21 16 20 15 14 9 8 8 7 8 7 6 6 8 5 5 10 13 12 15 14 14 15 15 14 14 15 15 17 18
30 29 29 27 27 25 25 22 23 16 17 15 12 11 11 9 8 7 7 6 6 8 8 7 9 12 15 15 16 15 16 16 16 16 17 16 19 20
28 28 27 24 26 25 24 24 21 18 16 14 13 12 11 10 10 8 8 8 8 8 7 8 9 13 14 16 18 18 19 19 17 17 16 18 21 22
13 15 20 23 26 24 23 23 17 15 15 15 14 14 13 11 8 8 8 6 7 9 6 8 10 11 16 16 16 17 18 19 20 17 17 21 24 23
21 12 16 13 13 16 14 17 15 15 15 15 16 14 12 10 9 9 7 7 9 9 9 8 9 13 15 15 15 17 18 18 17 17 19 25 25 23
24 25 26 25 16 17 18 17 15 16 17 16 14 13 13 11 11 8 8 8 10 8 8 10 11 12 13 15 14 14 17 18 19 19 21 24 28 27
22 28 30 29 24 23 21 19 18 18 16 15 14 13 12 10 11 10 9 9 8 8 9 10 11 10 10 8 13 10 16 18 19 21 23 25 29 32
41 36 32 27 24 23 21 18 18 18 17 16 14 14 12 11 10 10 7 9 8 7 10 11 11 10 10 12 16 17 15 14 19 23 26 27 28 31
24 31 31 29 27 21 19 20 20 19 19 17 16 13 11 11 10 10 8 9 7 7 11 13 9 12 10 8 11 15 16 16 18 22 25 26 27 30
21 26 26 26 24 22 21 21 20 18 18 19 16 13 12 11 9 10 11 9 8 9 11 13 10 8 8 10 13 16 16 20 19 20 20 18 19 17
29 26 24 22 21 21 22 21 20 20 21 19 16 14 13 11 11 13 13 9 8 9 11 12 10 8 9 9 10 15 17 20 22 23 19 18 21 28

GFSNE_925_spd_024.txt.gz
Wind_Speed
14 14 13 12 11 11 10 9 8 4 5 10 7 8 8 7 9 9 10 10 11 11 11 12 12 13 15 16 16 16 16 16 17 17 17 17 17 17
18 16 16 15 14 13 11 10 10 9 5 6 9 6 9 7 8 8 7 11 10 10 12 13 15 16 18 18 18 18 18 19 19 20 20 20 19 19
20 19 19 15 14 13 13 13 12 11 10 7 7 7 8 8 7 8 10 9 10 10 11 12 16 18 18 18 18 16 17 18 20 20 19 19 19 20
23 22 19 17 18 16 16 14 14 12 12 10 8 11 10 10 11 11 10 12 10 8 13 15 14 14 15 14 15 16 17 18 18 19 18 18 19 18
24 24 21 21 21 20 19 15 15 13 15 13 11 11 10 10 10 10 11 11 12 13 15 12 10 12 14 16 17 15 16 15 16 17 17 18 19 20
27 25 23 24 24 21 19 18 14 15 15 14 13 11 11 10 10 12 12 12 12 11 12 14 12 14 17 17 16 16 17 15 14 13 14 15 16 17
29 27 26 25 26 23 20 19 19 18 16 15 15 13 12 12 13 14 13 9 10 12 11 12 12 12 13 14 16 17 12 14 16 18 17 17 17 16
31 29 26 27 29 29 28 23 22 20 18 18 17 14 11 11 13 14 12 11 10 4 7 12 13 16 16 17 13 9 14 16 15 16 18 20 20 20
33 30 27 26 27 25 31 28 29 26 23 18 19 16 13 11 12 8 12 10 11 10 9 15 15 17 18 15 12 14 14 17 16 14 13 16 20 18
31 30 29 26 25 26 23 26 27 27 28 25 22 21 17 13 10 11 11 10 12 13 9 10 13 14 14 13 14 14 14 12 16 18 17 15 16 18
31 30 29 29 28 29 26 25 25 26 23 25 24 22 18 16 13 12 11 10 11 11 6 8 10 11 13 15 12 12 15 16 16 17 19 17 17 20
35 32 34 32 30 31 30 25 24 22 23 17 21 25 22 18 17 16 11 12 10 11 1 6 10 9 9 11 7 14 14 14 16 19 15 18 19 17
36 34 32 35 32 31 30 26 25 23 22 19 18 17 15 14 13 13 10 10 10 9 5 5 10 11 11 14 14 13 14 15 17 19 19 18 18 16
36 34 34 35 38 32 30 26 27 24 21 19 18 18 18 17 14 12 11 8 7 8 3 5 9 11 11 14 14 13 15 16 18 20 19 20 20 22
35 35 35 35 36 34 28 30 24 25 21 21 21 20 18 16 14 12 11 9 8 9 8 10 9 10 11 13 15 14 16 19 19 18 21 21 21 21
32 31 32 30 33 33 32 30 26 23 20 19 22 20 17 16 17 14 12 10 11 11 13 10 8 9 12 12 14 15 16 18 20 20 21 22 23 24
40 37 34 33 32 31 32 31 29 25 24 25 23 20 20 19 16 15 12 12 13 12 12 10 9 9 12 13 14 14 15 16 19 21 21 25 24 24
37 30 31 32 29 30 27 27 31 26 25 25 22 22 23 20 17 15 13 13 14 13 12 10 9 9 12 15 18 14 14 16 20 22 22 24 26 25
36 34 34 31 37 34 32 31 31 29 26 27 25 24 22 19 18 16 14 14 14 13 12 10 9 8 9 7 9 10 13 17 21 22 22 25 27 28
41 38 38 41 35 34 34 31 28 28 29 25 24 23 21 19 17 16 15 15 13 12 11 10 10 9 11 10 12 15 14 15 19 23 26 27 26 27
37 33 30 31 31 34 34 31 30 28 26 26 24 22 20 18 16 16 14 11 11 12 13 12 8 7 8 11 13 11 10 14 12 20 24 26 26 26
33 27 30 31 33 32 31 27 26 26 28 27 24 21 19 17 17 16 14 14 14 15 14 11 9 9 10 12 13 11 12 12 18 18 21 19 19 19
25 24 27 29 31 29 29 29 27 28 28 25 23 22 20 18 15 14 15 15 14 14 12 12 12 11 10 11 10 12 13 12 17 20 21 17 20 19

GFSNE_925_spd_027.txt.gz
Wind_Speed
14 14 13 10 9 8 7 6 7 5 5 11 6 9 6 8 10 7 10 10 9 10 11 11 12 13 14 15 15 15 15 15 15 16 16 18 19 19
16 17 15 13 11 10 9 8 8 8 6 5 6 6 8 7 10 9 9 9 11 12 11 11 13 15 16 18 17 17 17 15 14 15 15 15 16 18
19 18 17 17 13 13 11 12 11 9 8 8 4 8 9 7 4 7 11 11 14 16 13 12 13 16 18 18 16 16 16 14 15 16 16 16 15 15
22 21 20 18 19 15 15 14 13 11 11 7 9 7 11 13 13 12 13 16 15 12 13 12 16 18 16 14 13 13 15 16 15 16 17 16 17 18
25 25 24 23 21 21 21 16 16 14 12 13 11 12 12 13 15 12 15 16 15 14 17 17 16 13 12 15 15 16 17 15 15 15 16 16 14 14
32 29 28 27 26 24 20 23 16 16 16 15 14 14 14 14 12 13 15 20 18 12 12 11 15 14 16 13 14 14 14 15 15 14 14 15 16 18
33 31 28 28 29 27 25 23 22 20 19 18 16 15 15 14 16 15 18 15 14 16 11 12 14 15 17 20 18 14 13 13 13 16 18 18 18 18
31 29 28 29 31 32 32 26 27 24 22 20 19 17 14 9 11 14 12 11 8 7 10 11 15 14 15 2 7 10 8 9 12 14 17 19 20 20
33 32 30 30 35 37 38 36 29 30 27 24 21 18 9 11 13 7 12 12 11 7 6 10 13 15 10 6 5 6 8 11 17 17 14 17 17 17
36 37 36 35 36 35 31 35 35 30 34 30 22 21 20 15 7 11 12 11 12 16 16 10 11 12 10 9 13 12 10 13 14 13 13 16 15 15
38 38 38 37 36 41 35 31 31 32 31 36 33 25 24 18 14 12 13 13 13 15 11 14 8 9 9 12 13 10 9 13 11 13 15 12 12 13
41 40 44 41 40 41 40 35 31 33 32 30 32 33 29 23 21 23 15 17 16 13 9 11 8 9 11 13 10 11 12 13 11 17 16 14 13 12
38 41 41 50 46 47 48 41 41 34 33 29 31 26 22 23 16 23 20 18 16 15 7 6 8 9 12 14 14 14 12 12 13 15 17 15 9 13
40 39 37 42 51 48 49 45 37 32 28 28 26 25 25 21 18 17 18 16 13 10 6 8 6 9 11 13 15 12 12 12 13 16 16 14 14 14
43 34 40 38 47 50 43 44 33 31 27 26 25 23 22 23 17 19 18 14 11 10 10 8 8 8 10 14 15 14 13 14 14 15 17 17 15 14
53 41 25 41 43 48 45 41 31 30 28 27 26 24 21 22 25 23 18 16 15 16 17 15 11 9 10 12 13 15 14 15 14 14 15 19 19 15
34 34 23 28 34 33 37 42 32 32 29 24 25 24 25 28 26 24 21 21 18 16 15 16 15 10 10 12 13 14 13 14 14 14 17 19 20 17
34 29 31 36 35 37 37 36 38 35 32 27 30 32 28 26 23 23 22 19 17 16 13 12 14 12 13 18 22 15 13 13 14 15 17 18 19 19
34 36 36 37 37 40 42 42 38 41 39 39 32 31 31 26 25 23 21 18 17 15 13 12 12 13 10 8 8 18 11 12 14 16 16 18 21 21
40 38 40 40 40 42 44 43 43 39 41 36 35 34 31 27 25 22 20 19 18 15 14 13 13 14 13 11 11 10 12 14 12 15 17 21 22 22
37 36 41 45 45 46 47 43 41 38 35 35 33 28 26 26 23 23 20 19 18 16 14 14 15 14 8 6 12 15 10 12 11 10 15 18 21 22
22 21 24 39 59 58 45 34 32 35 39 35 32 28 27 26 24 22 21 19 16 16 14 13 11 9 10 14 16 15 14 8 12 17 14 14 12 16
12 14 17 18 15 18 30 29 31 30 34 32 28 27 26 24 22 19 20 19 17 16 15 16 16 14 13 16 16 14 14 14 12 14 14 12 14 16

GFSNE_925_spd_030.txt.gz
Wind_Speed
17 16 16 12 12 10 10 8 4 1 3 11 7 13 11 14 12 10 10 10 10 10 10 12 12 10 11 11 11 12 13 13 13 13 13 15 15 16
20 20 18 19 12 13 12 11 9 7 2 13 15 16 11 10 14 13 12 12 13 12 13 12 11 11 12 13 14 14 12 11 11 9 11 12 13 14
23 22 26 21 19 15 17 13 12 11 8 10 11 17 16 12 11 12 12 11 12 15 17 14 11 12 13 15 15 13 12 10 10 10 12 13 15 14
32 26 26 26 25 20 15 19 16 14 14 12 4 14 18 17 16 12 12 13 17 16 20 20 14 12 13 13 13 12 11 11 12 13 13 14 14 14
29 29 28 26 25 28 22 17 21 17 12 15 11 11 17 18 17 17 16 18 17 17 13 15 15 15 14 16 15 12 13 12 12 12 13 14 15 15
29 29 30 31 29 28 29 29 21 24 22 17 18 18 16 20 23 23 21 19 21 19 17 16 18 18 17 16 16 13 13 14 13 12 13 14 16 15
33 31 33 34 36 37 36 33 33 23 22 24 20 19 20 15 25 25 19 15 17 17 20 19 18 14 18 21 22 19 15 15 13 13 16 17 16 15
34 34 33 36 39 41 38 35 36 34 28 24 23 22 25 24 20 24 20 18 6 10 21 18 13 15 18 20 17 11 13 14 13 11 13 15 16 16
37 35 36 38 42 43 43 40 36 36 38 38 30 28 24 27 19 18 16 11 8 7 13 11 13 14 12 7 8 9 10 8 5 9 11 11 12 14
40 41 41 39 39 43 44 47 45 42 41 38 39 35 27 13 16 18 15 12 12 13 12 11 17 17 10 9 8 7 5 3 6 10 10 8 9 9
43 43 43 42 42 42 43 44 43 41 45 44 40 32 29 28 20 20 18 18 12 17 14 20 20 18 8 8 9 10 6 8 12 11 10 9 11 10
42 44 47 46 44 45 48 40 35 39 36 35 41 38 30 26 21 23 21 16 13 7 16 17 19 14 5 10 13 9 9 11 10 11 11 10 13 15
38 40 42 45 50 49 50 44 44 33 36 37 35 36 36 35 32 30 26 20 18 15 9 16 12 11 7 6 11 9 8 10 8 8 9 13 12 12
40 36 37 41 45 53 51 52 44 37 32 34 29 29 30 32 30 31 31 30 26 19 14 16 8 12 9 7 7 9 8 7 8 13 12 12 12 13
43 41 35 33 40 47 54 54 50 39 34 32 30 31 37 36 34 29 27 27 26 25 23 18 17 12 11 10 9 12 10 9 9 10 11 8 7 12
51 50 46 45 30 40 50 59 56 47 42 38 37 38 37 33 34 31 31 32 26 20 17 16 16 16 15 14 15 14 12 8 8 12 11 9 13 13
46 38 34 36 38 36 33 42 50 47 44 42 39 35 34 37 31 35 27 27 22 22 22 21 20 18 13 12 16 15 15 14 13 11 6 10 15 13
24 27 30 32 33 36 37 35 39 44 44 38 39 36 34 36 37 35 32 27 23 23 23 27 27 21 16 18 23 20 17 16 12 7 7 11 9 12
22 23 27 30 33 36 37 40 42 44 43 39 37 34 30 26 29 30 31 28 25 25 25 27 31 22 10 9 14 18 25 13 8 10 10 7 10 14
17 21 25 26 30 34 40 43 44 42 42 41 44 44 45 39 32 30 30 28 23 23 22 23 27 27 17 9 8 3 24 16 16 14 11 11 14 12
12 12 21 29 31 30 36 40 44 47 50 50 51 45 41 40 38 36 33 31 28 24 20 23 24 20 17 14 6 6 13 19 20 18 14 11 13 11
13 13 17 21 27 33 35 33 39 49 56 57 48 31 33 35 32 33 29 30 29 25 24 21 18 22 23 18 12 10 15 14 12 15 14 14 10 4
13 11 7 8 11 16 20 19 17 23 27 22 18 24 32 33 33 34 30 26 26 24 20 18 21 21 19 16 15 17 16 10 15 14 12 7 6 9

GFSNE_925_spd_033.txt.gz
Wind_Speed
19 18 19 16 11 8 9 7 4 2 3 12 8 21 20 17 15 16 14 11 10 9 8 9 11 11 10 10 10 11 12 11 11 12 10 10 10 11
21 18 20 21 17 12 14 12 10 7 2 8 16 17 24 21 18 17 14 11 11 11 12 11 12 12 11 11 12 14 13 10 10 10 9 9 10 10
23 23 21 21 22 18 16 18 17 14 9 9 15 18 20 21 21 18 16 17 16 15 16 14 14 13 12 12 12 13 12 10 10 9 9 9 10 11
29 27 27 23 23 25 18 24 23 20 19 15 8 23 24 23 20 22 22 20 18 17 16 18 19 18 14 13 13 11 11 10 9 10 11 11 10 10
34 34 32 30 31 30 31 24 27 25 22 20 15 22 27 25 22 21 20 20 21 20 19 18 17 20 16 15 15 12 11 11 11 12 12 13 12 14
35 35 39 38 38 37 36 35 27 30 29 25 24 22 25 28 27 27 25 24 24 22 22 18 16 19 20 18 19 18 14 14 13 13 14 16 16 18
40 41 38 42 44 43 40 39 39 31 34 30 27 27 27 20 30 33 32 28 27 25 24 23 21 19 20 18 18 21 18 17 14 13 13 15 18 17
39 43 40 41 44 45 46 42 40 41 34 29 27 23 29 32 28 34 31 28 12 24 26 26 23 22 18 15 15 14 13 15 13 14 15 16 15 14
41 38 39 39 42 45 48 47 45 42 44 40 31 34 30 40 37 30 32 30 26 22 22 20 20 19 16 14 12 11 11 12 13 10 7 6 6 6
38 40 39 39 39 43 45 47 49 49 46 45 41 39 40 37 36 37 34 34 25 20 20 13 20 20 16 14 12 11 12 12 11 6 4 4 6 7
39 37 39 42 40 41 42 39 41 47 49 48 46 45 42 33 27 33 30 29 10 16 24 19 20 22 20 19 17 14 13 13 11 8 6 6 10 14
37 41 42 44 41 42 45 39 39 42 42 41 49 48 46 44 38 32 31 30 22 12 23 23 22 21 8 19 19 18 16 15 14 13 9 7 9 17
36 37 37 39 43 44 46 45 50 41 41 45 42 47 45 45 44 43 44 41 34 24 25 30 24 24 17 8 18 18 16 14 17 16 13 11 11 14
35 35 38 38 40 43 49 54 54 45 39 38 40 41 41 44 45 47 46 43 41 34 28 23 20 28 25 11 9 15 14 13 15 13 10 11 12 9
41 38 39 39 41 39 45 52 56 56 44 40 41 44 43 44 44 48 48 42 36 35 33 30 31 26 24 20 13 13 13 13 12 11 10 11 10 8
46 48 49 48 46 44 46 42 53 45 46 45 44 42 37 35 41 41 39 40 35 33 30 29 30 29 26 23 20 16 18 11 14 13 12 10 7 6
13 25 30 28 30 35 39 39 42 44 39 43 41 38 35 38 41 43 39 36 33 26 32 32 30 28 24 23 19 20 20 18 16 15 12 10 6 5
14 22 23 23 25 27 30 31 33 38 41 38 39 37 35 38 40 40 39 40 34 27 24 27 30 23 18 17 18 16 21 20 17 15 15 9 5 7
7 12 13 15 18 21 23 27 32 34 42 40 41 40 37 43 49 45 44 41 34 36 33 30 31 26 4 6 10 21 23 21 18 16 13 10 11 11
13 11 13 17 21 25 28 30 31 32 34 41 44 42 43 44 42 43 50 47 42 40 36 31 31 32 21 13 13 20 18 25 22 18 12 13 14 11
15 13 13 15 16 16 17 18 22 30 36 37 43 43 47 51 50 51 41 39 30 25 29 31 36 41 34 23 12 9 13 18 24 21 16 16 17 11
11 11 10 8 8 14 17 20 20 26 29 22 22 11 26 29 23 14 28 24 26 25 23 27 33 36 27 25 16 14 15 16 24 22 21 19 13 7
13 16 16 16 20 22 21 18 13 11 14 20 22 19 21 22 10 18 21 21 20 21 27 28 32 34 29 21 20 18 17 15 16 19 20 22 26 19

GFSNE_925_spd_036.txt.gz
Wind_Speed
20 17 17 15 13 11 12 11 8 3 5 13 11 23 26 23 22 23 21 18 16 13 12 12 11 10 11 11 11 10 11 10 10 11 10 9 9 10
22 21 23 23 21 17 14 15 15 12 3 16 22 16 26 27 24 24 22 20 19 17 17 16 14 13 13 12 12 11 11 11 9 8 7 7 8 9
26 25 24 23 26 24 20 19 19 17 13 14 14 20 22 29 27 27 25 24 21 19 18 18 17 16 15 14 12 11 11 9 8 8 7 6 8 8
31 28 29 27 27 29 28 26 25 24 22 20 18 17 22 27 28 29 28 28 27 22 21 20 20 21 20 18 15 13 11 9 9 8 9 8 8 9
35 34 34 32 32 30 31 32 27 27 26 25 24 20 21 27 30 31 30 30 27 24 23 23 23 21 26 24 19 17 14 12 12 13 11 10 11 11
37 37 38 38 38 36 33 34 33 29 29 29 29 24 22 27 30 33 32 32 31 28 26 26 25 26 26 25 25 21 20 19 16 14 12 12 12 13
39 40 41 41 42 42 39 39 37 36 35 32 31 26 23 27 31 32 31 33 35 33 29 28 28 26 23 23 26 26 24 23 20 16 14 12 11 13
41 42 42 42 45 44 44 44 42 40 36 30 28 25 31 37 38 33 34 27 18 36 35 35 30 29 27 25 23 24 24 21 21 17 13 11 12 9
41 40 41 42 43 45 46 47 47 48 46 40 36 35 35 40 40 36 31 28 31 29 32 32 35 35 32 27 24 22 21 17 16 14 12 10 5 2
39 39 40 39 42 43 42 40 48 54 54 52 46 46 46 44 43 44 43 42 38 40 39 29 36 34 30 28 25 23 22 20 17 16 13 9 5 4
39 41 42 41 40 38 40 38 40 51 50 55 57 56 54 48 47 38 33 28 26 30 40 34 30 32 31 30 26 25 26 23 20 18 15 12 11 10
37 40 40 41 38 38 42 40 39 43 34 38 49 57 59 57 51 47 40 35 31 13 33 33 31 30 11 31 30 30 29 27 23 20 18 16 15 15
33 34 34 35 38 43 43 44 47 42 38 40 41 42 46 49 50 54 48 42 36 35 35 42 31 29 19 9 26 31 34 31 28 25 22 20 19 17
32 32 32 34 39 41 43 49 52 52 46 36 32 38 38 38 43 46 52 54 51 51 39 38 32 34 28 10 6 24 35 33 30 28 26 22 21 20
40 35 35 35 34 35 40 45 47 49 42 38 36 37 37 39 41 44 49 53 50 47 46 45 44 36 36 27 23 21 32 36 32 27 25 23 21 18
38 41 41 40 40 39 36 38 40 45 39 38 39 43 40 37 39 44 42 42 42 43 47 55 49 46 36 35 36 31 29 20 29 28 25 21 18 17
13 16 18 20 24 24 25 28 33 36 37 38 35 37 37 37 36 40 43 44 41 41 38 46 50 51 41 38 28 31 32 23 25 28 24 19 19 15
13 12 16 18 20 19 18 15 15 18 23 27 30 33 37 37 39 37 42 43 42 41 39 35 33 32 28 28 35 34 31 29 26 25 20 21 20 15
3 1 4 5 7 13 14 14 15 18 24 25 28 32 36 38 37 46 38 41 47 47 44 46 45 35 11 8 20 28 32 29 28 23 22 22 20 16
11 8 7 7 7 6 8 10 13 22 20 24 28 29 29 25 29 35 42 35 37 35 33 44 47 36 23 16 11 27 26 28 28 25 23 20 14 11
11 11 11 11 9 11 15 15 17 17 19 28 22 13 8 11 19 22 25 30 30 24 14 11 26 28 25 24 13 12 26 25 25 26 25 21 15 13
13 13 14 15 16 18 21 21 21 20 16 10 8 13 12 12 15 17 25 25 27 30 30 25 23 26 24 16 13 17 23 22 21 24 25 18 14 10
13 13 15 15 16 16 18 19 21 20 15 13 11 9 9 10 10 11 17 20 21 24 30 25 23 20 18 21 22 20 18 18 22 27 25 20 19 19

GFSNE_925_spd_042.txt.gz
Wind_Speed
18 18 16 14 12 12 12 11 5 1 2 5 6 8 13 16 19 20 20 18 19 19 18 18 18 17 16 15 15 14 12 12 13 12 10 9 8 7
20 19 19 18 16 14 13 12 12 10 3 4 12 14 14 15 16 20 23 22 22 23 24 23 23 21 20 20 18 17 16 14 12 12 10 8 8 7
22 23 22 20 20 20 19 19 18 15 12 18 19 20 18 17 19 21 23 26 27 26 27 27 27 26 25 23 21 20 19 16 14 12 12 11 10 9
26 26 26 24 24 23 22 23 24 23 21 23 27 26 26 23 22 22 24 26 29 31 30 31 32 30 28 27 26 24 23 21 19 16 16 16 13 11
29 29 29 28 29 28 27 27 27 26 26 28 26 24 28 27 27 27 27 29 31 33 34 33 34 34 33 31 30 28 28 26 24 22 20 20 16 14
32 33 33 33 32 31 30 31 32 31 30 30 30 29 30 33 30 33 34 34 34 34 37 39 38 37 36 35 34 32 32 30 30 28 24 21 20 17
33 34 35 36 36 34 33 34 34 33 27 25 24 22 26 23 26 28 30 36 39 38 39 42 42 43 42 38 36 35 34 34 32 31 30 25 21 20
38 38 37 36 36 37 37 37 37 33 28 26 28 26 29 28 33 32 29 24 20 27 34 42 42 46 47 44 42 39 35 34 35 34 32 27 23 21
41 40 39 39 39 39 39 39 40 40 40 36 34 33 34 31 33 30 29 31 33 31 27 29 30 39 41 45 47 45 40 35 38 34 32 29 23 24
44 43 41 40 39 39 39 40 42 41 39 38 43 48 45 41 37 39 39 37 38 36 29 28 32 35 37 43 42 45 46 43 43 38 33 31 25 26
39 40 40 38 37 37 36 36 40 37 37 39 39 40 41 41 42 34 26 23 26 33 30 30 37 37 35 42 50 48 47 49 48 41 35 32 27 27
35 37 38 38 37 37 38 36 34 34 36 34 37 38 38 37 37 40 45 32 29 21 31 34 37 24 14 37 40 43 48 49 53 46 42 38 31 34
28 27 27 33 34 34 37 40 37 38 35 33 35 31 32 36 39 40 42 39 33 35 37 29 28 29 29 29 27 41 51 51 52 49 46 44 38 42
27 27 30 30 29 29 31 35 36 38 43 33 29 30 28 29 30 30 33 38 45 48 47 38 28 34 36 32 22 33 40 49 52 53 54 48 39 43
35 32 29 25 24 24 25 27 30 33 35 28 26 27 27 28 30 30 30 31 34 40 43 46 47 44 39 40 29 35 28 38 48 48 54 51 51 50
34 36 32 30 29 27 27 28 22 16 17 19 18 20 21 21 22 24 24 26 28 30 29 33 41 46 47 45 43 39 37 26 43 44 48 48 52 52
24 27 26 23 18 11 9 8 7 5 5 6 8 11 14 18 21 21 20 22 22 25 31 34 32 36 44 50 44 38 39 41 41 46 40 32 42 51
9 8 6 4 4 5 6 5 4 3 5 7 7 11 14 12 16 17 15 16 19 23 28 32 37 38 34 34 44 44 40 34 30 47 51 37 33 42
6 4 3 0 2 2 1 2 1 5 8 10 10 12 8 9 10 11 14 16 16 21 25 32 30 27 14 14 9 11 8 15 21 19 22 26 26 40
11 9 8 7 5 3 3 6 8 10 12 11 11 9 8 12 12 13 14 15 16 19 20 25 24 23 13 6 5 20 15 32 36 31 33 30 22 28
12 11 8 5 5 5 7 9 10 11 11 11 11 10 11 13 11 11 13 13 13 12 17 20 21 12 4 8 13 21 26 21 31 36 33 28 18 17
11 9 7 5 6 6 7 7 9 10 10 10 10 12 14 14 11 13 13 9 9 10 13 15 16 11 17 15 13 14 24 27 25 27 26 21 26 9
9 7 7 7 7 8 9 9 9 9 11 13 13 14 14 14 12 9 8 7 6 6 7 8 12 13 14 15 18 17 20 19 19 19 15 12 21 1

GFSNE_925_spd_045.txt.gz
Wind_Speed
9 9 10 8 7 7 7 7 7 5 6 3 2 3 6 10 14 17 19 20 19 19 19 19 18 18 19 18 18 17 16 14 13 12 12 11 10 10
11 10 11 10 10 9 8 7 8 8 6 7 9 11 13 12 13 15 19 20 23 23 24 24 24 24 22 22 22 21 20 18 17 15 13 11 10 10
13 13 13 13 13 12 11 11 12 11 15 18 15 13 18 18 18 18 19 21 21 25 27 28 29 29 28 27 26 25 24 22 20 19 17 15 14 12
16 15 15 14 15 15 14 15 15 15 16 20 19 18 19 17 22 23 23 20 22 23 26 28 32 33 33 33 32 30 29 28 25 24 23 20 18 17
18 18 18 16 17 16 17 17 16 16 16 18 23 20 20 17 18 22 23 25 27 29 30 31 32 35 37 37 36 35 34 33 32 29 27 24 22 21
20 20 20 19 20 19 19 18 17 18 19 20 24 24 23 21 19 23 23 23 23 22 26 29 33 36 37 39 40 39 39 39 37 36 33 30 28 26
21 21 21 23 25 26 21 20 17 18 18 20 22 22 23 21 22 23 25 26 26 22 26 25 26 27 29 37 42 45 45 44 42 41 39 37 34 31
23 23 24 28 31 32 32 30 28 24 24 24 27 27 25 25 25 25 26 27 26 21 24 24 21 29 29 30 36 40 46 49 47 45 43 41 39 35
26 25 24 24 26 26 25 29 31 32 35 36 33 30 31 27 27 27 28 30 31 26 24 36 26 34 33 35 38 43 42 43 49 49 46 45 43 40
31 31 30 31 29 27 25 27 27 27 26 28 33 39 35 31 29 30 30 31 37 32 26 30 31 34 33 35 39 42 46 43 42 48 51 49 45 43
33 32 31 32 31 31 30 30 31 29 27 31 35 36 35 34 34 34 29 24 23 31 24 25 33 34 34 36 35 38 43 45 44 43 48 56 49 46
28 29 32 34 32 32 32 28 30 28 26 25 24 25 28 30 29 28 30 25 24 19 16 16 23 23 16 29 28 32 33 43 46 48 49 51 54 51
25 24 24 27 30 31 33 31 30 27 26 26 27 30 30 30 27 23 29 30 26 24 30 28 24 29 28 29 34 35 36 38 39 43 48 52 52 58
23 21 20 23 26 23 25 29 29 30 36 32 28 25 24 25 23 20 19 23 27 33 34 31 32 32 34 36 33 34 34 38 40 42 48 54 50 62
25 22 22 22 22 22 23 25 27 30 32 27 24 24 19 17 18 20 16 16 18 19 20 21 26 31 32 36 40 39 41 35 37 42 42 42 52 63
31 30 28 27 26 26 26 24 24 24 18 15 15 14 13 12 12 13 14 14 16 17 17 19 22 24 30 33 36 42 40 38 32 38 42 44 46 58
23 20 21 23 22 21 18 10 8 7 7 6 7 9 10 12 12 10 10 11 13 16 18 19 21 24 25 28 32 31 36 37 34 30 36 35 39 49
12 14 13 11 9 7 6 6 5 4 3 4 6 8 9 10 10 9 9 11 12 15 17 20 22 24 24 16 14 33 35 30 33 29 26 20 23 33
8 8 9 7 5 4 3 3 3 1 1 4 6 8 9 9 9 11 11 11 13 13 15 17 19 17 8 7 9 31 30 22 20 21 20 16 21 28
7 7 7 6 5 3 1 0 2 3 4 5 7 9 9 9 12 12 11 10 10 12 14 16 16 16 9 6 7 20 24 18 21 26 33 37 35 36
11 11 8 6 6 4 3 3 4 5 5 7 7 8 9 10 12 10 9 8 9 8 10 11 14 12 9 6 7 14 23 19 22 22 25 30 27 25
14 10 8 7 6 4 3 3 3 4 6 8 7 8 9 9 11 12 10 8 7 7 8 8 8 4 7 9 9 9 15 23 23 23 26 23 17 7
8 8 8 7 6 5 5 5 6 6 7 9 11 12 12 13 12 11 12 10 8 8 6 4 3 4 7 8 8 9 12 15 16 21 24 19 17 8

GFSNE_925_spd_048.txt.gz
Wind_Speed
9 9 10 9 7 7 6 6 6 5 3 5 4 5 5 7 10 13 15 18 22 21 22 22 22 22 21 22 22 22 21 21 19 18 18 15 14 13
11 10 10 10 9 9 9 8 9 10 7 7 7 8 10 11 13 15 15 19 24 25 26 27 28 27 27 27 26 26 26 26 25 23 21 18 18 15
12 12 13 12 12 11 11 11 12 12 14 15 13 13 14 15 15 16 17 18 20 24 25 26 31 33 33 32 32 31 31 30 30 28 27 24 21 20
15 15 15 14 15 14 14 14 15 14 16 17 18 19 19 18 19 19 19 21 23 24 27 30 29 30 34 37 38 38 37 36 35 34 32 30 26 24
18 18 18 17 17 16 16 16 16 16 16 18 20 20 20 20 21 21 20 22 23 23 25 29 30 32 36 38 41 43 44 43 41 39 38 36 32 30
19 19 20 20 19 18 17 17 17 17 18 20 22 21 20 19 20 21 20 20 22 22 23 26 28 32 36 36 39 43 47 48 47 46 43 41 38 36
21 20 21 22 22 22 19 17 17 18 19 20 21 21 21 19 19 24 27 27 26 24 27 25 26 26 27 31 33 34 39 47 51 51 49 46 44 42
23 22 22 23 24 27 28 29 27 22 24 24 24 24 21 23 24 27 29 29 27 25 22 28 27 28 27 30 31 33 36 38 37 41 52 53 51 48
24 23 23 24 23 22 23 24 24 27 30 31 29 28 28 26 25 26 29 28 27 27 28 32 28 29 29 30 30 30 33 38 42 44 40 44 56 55
27 27 27 27 26 24 22 24 24 24 24 25 25 25 24 22 21 23 25 28 27 23 19 26 26 29 30 30 31 30 32 38 42 42 45 45 42 50
31 31 31 30 30 29 28 29 29 28 27 29 31 32 29 27 27 26 24 24 25 23 20 21 26 30 34 34 32 31 27 30 36 40 43 45 46 44
28 29 33 35 32 31 30 28 28 26 22 23 23 21 18 19 19 19 17 19 18 16 13 13 21 20 16 34 30 32 34 33 34 40 41 42 44 51
27 27 27 28 28 29 33 30 27 23 22 21 20 19 18 18 15 17 22 24 21 20 24 20 23 30 26 30 35 35 32 32 31 33 35 41 47 47
27 24 22 22 22 24 24 26 26 26 23 23 21 21 21 20 23 19 16 18 21 24 24 20 22 26 30 32 30 35 34 35 33 31 33 37 40 42
26 23 21 17 15 18 21 21 20 20 22 26 25 25 24 19 12 14 15 13 14 15 15 15 18 21 24 28 30 33 35 34 28 35 37 32 38 42
32 27 23 20 19 16 16 17 19 21 21 22 21 16 13 11 13 11 12 11 13 13 10 12 13 16 21 23 24 25 28 25 37 35 36 34 33 44
20 19 20 19 19 16 15 20 22 16 13 10 11 10 12 11 11 8 9 10 11 12 14 13 12 15 18 19 17 21 29 27 31 38 36 29 22 30
16 14 14 15 15 14 11 9 7 7 7 7 10 9 9 9 9 8 8 9 11 11 12 12 12 17 20 9 11 22 26 27 33 29 26 17 21 12
8 9 8 7 7 6 6 5 6 5 3 6 7 7 8 9 7 8 9 10 9 11 12 10 10 10 6 8 11 19 26 20 21 23 23 24 23 25
8 9 9 7 6 6 4 4 3 2 2 3 6 8 8 8 9 9 9 9 10 11 11 8 8 7 5 7 7 11 20 11 13 17 23 29 29 30
9 9 8 7 6 5 3 1 0 2 4 4 5 6 5 5 8 9 9 10 10 12 10 10 6 6 3 4 7 9 10 10 10 11 22 26 25 26
10 8 8 7 6 4 2 1 0 1 2 3 4 5 7 8 9 10 10 11 10 11 11 11 6 4 5 6 2 2 5 8 10 9 12 16 12 8
10 8 7 6 5 4 3 2 2 2 4 5 7 8 9 10 11 12 12 13 12 15 12 12 9 5 3 3 3 2 3 5 6 10 6 11 5 17